DW8722 Weather Reports


Display with metric or nautical units.
time (UTC)temp
F
wind
direction
speed
MPH
gust
MPH
rain 1hr
in
rain 24hr
in
rain mn
in
humidity
%
barometer
mb
20260904105655 74 130 0.0 8.0 0.00 0.03 0.00 89 1013.1
20260904104701 74 153 0.0 2.0 0.00 0.03 0.00 89 1013.0
20260904102528 74 135 0.0 2.0 0.00 0.03 0.00 88 1012.9
20260904101512 74 134 1.0 3.0 0.00 0.04 0.00 88 1012.9
20260904100528 74 127 1.0 4.0 0.00 0.04 0.00 88 1012.8
20260904095540 74 128 3.0 4.0 0.00 0.04 0.00 88 1012.8
20260904094508 74 125 1.0 4.0 0.00 0.04 0.00 88 1012.8
20260904093438 74 123 0.0 3.0 0.00 0.04 0.00 87 1012.7
20260904092453 74 125 0.0 4.0 0.00 0.04 0.00 87 1012.8
20260904091446 74 129 2.0 4.0 0.00 0.04 0.00 87 1012.8
20260904090414 74 126 0.0 2.0 0.00 0.04 0.00 86 1012.8
20260904085429 74 138 0.0 0.0 0.00 0.04 0.00 86 1012.8
20260904084435 74 138 0.0 0.0 0.00 0.04 0.00 86 1012.7
20260904083440 74 138 0.0 0.0 0.00 0.04 0.00 86 1012.7
20260904082454 74 138 0.0 0.0 0.00 0.04 0.00 85 1012.7
20260904081454 75 138 0.0 0.0 0.00 0.04 0.00 85 1012.7
20260904080511 75 141 0.0 0.0 0.00 0.04 0.00 84 1012.6
20260904075438 75 142 0.0 0.0 0.00 0.04 0.00 84 1012.7
20260904074444 75 142 0.0 0.0 0.00 0.04 0.00 84 1012.6
20260904071148 75 157 1.0 3.0 0.00 0.04 0.00 83 1012.7
20260904070152 76 127 0.0 2.0 0.00 0.04 0.00 82 1012.8
20260904063958 76 150 0.0 3.0 0.00 0.04 0.00 80 1012.8
20260904062944 77 190 0.0 0.0 0.00 0.04 0.00 79 1012.9
20260904061943 77 190 0.0 0.0 0.00 0.04 0.00 79 1012.9
20260904060958 77 201 0.0 0.0 0.00 0.04 0.00 79 1013.0
20260904060021 77 209 0.0 1.0 0.00 0.04 0.00 79 1013.0
20260904055013 78 184 0.0 2.0 0.00 0.04 0.00 78 1012.9
20260904054007 78 171 2.0 8.0 0.00 0.04 0.00 78 1012.8
20260904052937 78 162 3.0 8.0 0.00 0.04 0.00 78 1012.6
20260904050826 78 175 4.0 8.0 0.00 0.02 0.02 78 1012.7
20260904045838 78 175 3.0 7.0 0.00 0.02 0.02 78 1012.6
20260904044821 79 185 4.0 7.0 0.00 0.02 0.02 78 1012.5
20260904043821 79 182 3.0 6.0 0.00 0.02 0.02 78 1012.7
20260904042818 79 173 3.0 7.0 0.00 0.02 0.02 78 1012.6
20260904041757 79 186 3.0 10.0 0.00 0.02 0.02 78 1012.7
20260904035635 80 170 4.0 7.0 0.00 0.02 0.02 79 1012.6
20260904034610 80 171 3.0 7.0 0.00 0.02 0.02 79 1012.5
20260904033614 80 184 3.0 7.0 0.00 0.02 0.02 79 1012.7
20260904032609 80 170 3.0 7.0 0.00 0.02 0.02 79 1012.7
20260904031627 80 170 2.0 7.0 0.00 0.02 0.02 78 1012.6
20260904030630 80 148 2.0 5.0 0.00 0.02 0.02 78 1012.5
20260904025628 80 140 2.0 6.0 0.00 0.02 0.02 77 1012.2
20260904024636 81 161 2.0 6.0 0.00 0.02 0.02 77 1012.1
20260904022517 81 132 1.0 4.0 0.00 0.02 0.02 77 1011.9
20260904021539 81 140 1.0 4.0 0.00 0.02 0.02 76 1011.8
20260904015331 82 133 1.0 4.0 0.00 0.02 0.02 74 1011.5
20260904014300 82 128 0.0 2.0 0.00 0.02 0.02 73 1011.3
20260904013252 83 124 0.0 2.0 0.00 0.02 0.02 72 1011.1
20260904012258 83 123 0.0 0.0 0.00 0.02 0.02 71 1011.1
20260904004950 85 112 3.0 7.0 0.00 0.02 0.02 68 1011.1
20260904003917 85 128 3.0 11.0 0.00 0.02 0.02 67 1011.0
20260904002846 86 163 5.0 11.0 0.00 0.02 0.02 66 1011.0
20260904001904 87 131 6.0 14.0 0.00 0.02 0.02 64 1011.0
20260904000847 88 135 8.0 17.0 0.00 0.02 0.02 61 1010.9
20260903235827 88 118 8.0 17.0 0.00 0.02 0.02 59 1010.9
20260903234802 89 198 6.0 15.0 0.00 0.02 0.02 58 1010.7
20260903231434 90 126 7.0 13.0 0.00 0.02 0.02 61 1010.5
20260903230440 90 119 6.0 15.0 0.00 0.02 0.02 61 1010.4
20260903225439 90 132 7.0 15.0 0.00 0.02 0.02 61 1010.5
20260903224455 91 137 6.0 13.0 0.00 0.02 0.02 60 1010.5
20260903221125 90 155 7.0 12.0 0.00 0.02 0.02 61 1010.5
20260903220137 89 125 6.0 12.0 0.00 0.02 0.02 63 1010.6
20260903215128 89 126 6.0 11.0 0.00 0.02 0.02 62 1010.7
20260903214150 89 132 6.0 11.0 0.00 0.02 0.02 63 1010.8
20260903213148 89 164 7.0 13.0 0.00 0.02 0.02 63 1010.9
20260903212139 89 178 8.0 17.0 0.00 0.02 0.02 63 1011.1
20260903210015 89 159 8.0 15.0 0.00 0.02 0.02 63 1011.2
20260903204957 89 148 8.0 17.0 0.00 0.02 0.02 65 1011.3
20260903203930 89 137 8.0 17.0 0.00 0.02 0.02 65 1011.6
20260903202920 88 169 6.0 13.0 0.00 0.02 0.02 64 1011.6
20260903201922 88 187 7.0 14.0 0.00 0.02 0.02 66 1011.7
20260903200902 88 128 7.0 16.0 0.00 0.02 0.02 67 1011.8
20260903195837 87 186 8.0 16.0 0.00 0.02 0.02 67 1011.9
20260903194825 87 150 8.0 14.0 0.00 0.02 0.02 68 1012.0
20260903192645 85 157 10.0 16.0 0.00 0.02 0.02 72 1012.1
20260903191654 84 162 9.0 21.0 0.00 0.02 0.02 75 1012.5
20260903190642 83 153 11.0 21.0 0.00 0.02 0.02 75 1012.6
20260903185614 83 155 10.0 21.0 0.00 0.02 0.02 75 1012.7
20260903184634 83 186 8.0 18.0 0.00 0.02 0.02 77 1012.8
20260903183636 82 173 9.0 18.0 0.00 0.02 0.02 78 1012.9
20260903182605 81 171 9.0 17.0 0.00 0.02 0.02 80 1013.1
20260903181602 81 153 8.0 19.0 0.00 0.02 0.02 80 1013.3
20260903180623 81 158 9.0 19.0 0.00 0.02 0.02 80 1013.2
20260903173348 81 149 8.0 19.0 0.00 0.02 0.02 81 1013.4
20260903172358 81 157 10.0 19.0 0.00 0.02 0.02 81 1013.6
20260903170238 81 168 10.0 17.0 0.00 0.02 0.02 83 1013.6
20260903165239 81 187 8.0 19.0 0.00 0.02 0.02 83 1013.5
20260903163026 79 174 7.0 16.0 0.00 0.02 0.02 86 1013.4
20260903162031 79 121 8.0 19.0 0.00 0.02 0.02 86 1013.4
20260903161047 79 177 8.0 19.0 0.00 0.02 0.02 86 1013.5
20260903160013 80 138 7.0 14.0 0.00 0.02 0.02 86 1013.4
20260903154952 80 142 6.0 13.0 0.00 0.02 0.02 87 1013.4
20260903153948 79 159 8.0 16.0 0.00 0.02 0.02 87 1013.3
20260903153002 79 175 8.0 16.0 0.00 0.02 0.02 87 1013.2
20260903151936 79 114 8.0 17.0 0.00 0.02 0.02 87 1013.2
20260903150954 79 169 8.0 17.0 0.00 0.02 0.02 87 1013.1
20260903145945 79 140 7.0 15.0 0.00 0.02 0.02 88 1013.1
20260903145010 79 150 6.0 15.0 0.00 0.02 0.02 89 1013.0
20260903142856 79 147 6.0 15.0 0.00 0.02 0.02 90 1013.1
20260903141837 78 147 7.0 15.0 0.00 0.02 0.02 90 1013.1
20260903140858 78 157 6.0 13.0 0.00 0.02 0.02 90 1013.3
20260903133620 77 155 3.0 7.0 0.00 0.02 0.02 90 1013.2
20260903132603 76 141 3.0 7.0 0.00 0.02 0.02 90 1013.2
20260903131603 76 119 3.0 8.0 0.00 0.02 0.02 90 1013.2
20260903130601 76 143 3.0 8.0 0.00 0.02 0.02 90 1013.2
20260903125554 76 123 3.0 8.0 0.00 0.02 0.02 90 1013.2
20260903124601 76 145 3.0 4.0 0.00 0.02 0.02 90 1012.9
20260903122743 76 153 4.0 10.0 0.00 0.02 0.02 90 1012.9
20260903121720 76 149 3.0 10.0 0.00 0.02 0.02 90 1012.9
20260903120710 76 148 4.0 8.0 0.00 0.02 0.02 90 1012.6
20260903115727 76 126 4.0 9.0 0.00 0.02 0.02 91 1012.6
20260903113604 76 127 0.0 7.0 0.00 0.02 0.02 91 1012.6